Temp
10 9 8 9 9 9 10 10 10 10 10 10 9 9 10 10 10 10 10 10 10 10 10 10 9 9 9 9 9 9 9 9 9 9 9 9 9 9 9 9 9 10
9 8 8 9 9 9 9 9 9 9 9 9 9 9 9 9 10 10 10 10 10 10 10 10 9 9 9 9 9 9 8 8 8 8 8 9 9 9 9 9 9 9
9 8 8 9 9 9 9 9 9 9 9 9 9 9 9 9 10 10 10 10 9 9 10 9 9 9 9 9 9 8 8 8 8 8 8 8 8 9 9 8 9 9
9 8 8 8 8 8 8 8 8 8 8 8 8 9 9 9 10 9 9 9 9 9 9 9 9 9 9 9 9 8 8 8 8 7 8 8 9 9 9 9 9 9
9 8 8 8 8 8 8 7 8 8 8 8 8 8 9 9 9 9 9 8 8 9 9 9 9 9 9 8 8 8 8 8 8 7 8 8 9 9 9 9 9 9
9 8 8 8 8 8 7 7 7 7 7 8 8 8 8 8 8 8 8 7 7 8 8 8 8 8 8 8 8 8 8 8 7 7 8 8 9 9 9 9 9 9
8 8 8 8 8 7 7 7 7 7 7 7 7 8 8 8 8 8 7 6 7 8 8 8 8 8 7 7 7 8 8 7 8 8 8 8 9 9 9 9 9 9
8 8 8 7 7 7 7 7 6 6 7 7 7 7 8 8 8 7 6 6 7 7 7 7 7 7 7 7 7 7 7 8 8 8 8 8 8 9 9 9 9 9
8 8 8 7 7 7 7 7 6 6 6 6 7 7 7 8 7 6 6 6 6 6 6 6 7 7 7 7 7 7 8 8 8 8 8 8 8 8 8 9 9 9
8 8 7 7 7 7 7 6 6 6 6 6 7 7 7 8 7 6 5 6 6 6 6 6 6 6 7 7 8 8 8 8 8 8 8 8 8 8 8 8 8 8
8 8 7 7 7 7 7 6 6 6 6 6 7 7 8 8 7 6 5 5 6 6 6 6 6 7 7 7 8 8 7 7 7 7 7 7 7 7 7 7 8 8
8 7 7 7 7 7 6 6 6 6 6 7 7 7 8 8 8 7 6 5 6 6 6 6 7 7 7 7 7 7 7 7 7 7 7 7 7 7 7 7 7 7
8 7 7 7 7 6 6 6 6 6 6 7 7 8 8 8 8 7 7 6 6 6 6 7 7 7 7 7 7 7 7 7 7 7 7 7 7 7 7 7 7 7
8 7 7 7 7 6 6 6 6 6 7 7 8 8 8 7 7 7 7 7 7 7 7 7 7 7 7 7 7 7 7 7 7 7 7 7 6 6 7 7 7 7
8 7 7 7 6 6 6 6 6 6 7 8 8 8 8 7 7 7 7 7 7 7 7 7 7 7 8 7 7 7 7 7 7 7 6 6 6 6 6 7 7 7
8 7 7 7 6 6 6 6 6 6 7 7 8 8 7 7 7 7 6 6 6 7 7 7 7 7 7 7 7 7 6 6 6 6 6 6 6 6 6 6 6 6
8 7 7 7 7 6 6 6 6 6 7 7 7 7 7 7 7 7 6 6 6 6 7 7 7 7 7 7 7 7 6 6 6 6 6 6 6 6 6 6 6 6
8 8 7 7 7 6 6 6 6 6 7 7 7 7 7 7 7 7 7 6 6 6 6 7 7 7 7 7 6 6 6 6 6 6 6 6 6 6 6 6 6 6
9 8 7 7 7 6 6 6 6 6 7 7 7 7 7 7 7 7 6 6 6 6 6 6 7 7 6 6 6 6 6 6 6 6 6 6 6 6 6 5 5 5
9 8 7 7 7 6 6 6 6 6 7 7 7 7 7 7 7 7 6 6 6 6 6 6 6 6 6 6 6 6 6 6 5 5 5 5 5 5 5 5 5 5
9 8 7 7 6 6 6 6 6 6 7 7 7 7 7 7 7 6 6 6 6 6 6 6 6 6 6 6 6 6 6 5 5 5 5 5 5 5 5 5 5 5
9 8 8 7 6 6 6 6 6 6 7 7 7 7 7 7 7 6 6 6 6 6 6 6 6 6 6 6 6 6 5 5 5 5 5 5 5 5 5 5 5 4
10 9 8 7 6 6 6 6 6 7 7 7 7 7 7 7 6 6 6 6 6 6 6 6 6 6 6 6 5 5 5 4 4 4 4 5 5 5 5 5 5 4
10 9 8 7 6 6 6 6 6 7 7 7 7 6 6 6 6 6 6 6 6 6 6 6 6 6 6 6 5 5 5 4 3 4 4 4 4 4 4 4 4 4
10 9 8 7 7 6 6 6 6 7 7 7 7 6 6 6 6 5 5 6 6 6 6 6 6 6 6 5 5 5 5 4 3 3 4 3 4 4 4 4 4 4
10 9 8 8 7 6 6 6 6 6 7 7 7 6 6 5 5 5 5 5 5 6 6 6 6 6 5 5 5 5 5 4 3 3 3 3 3 3 3 4 4 4
Height
1549 1550 1551 1551 1551 1551 1550 1550 1549 1548 1548 1547 1547 1546 1545 1544 1543 1543 1542 1541 1541 1540 1539 1539 1539 1538 1538 1537 1536 1535 1534 1534 1533 1532 1532 1531 1531 1530 1529 1529 1529 1529
1549 1549 1550 1551 1551 1550 1550 1549 1549 1548 1548 1547 1546 1546 1545 1544 1543 1542 1542 1541 1540 1539 1539 1539 1539 1538 1538 1537 1536 1536 1535 1534 1533 1533 1532 1532 1531 1531 1530 1529 1529 1529
1549 1549 1550 1550 1550 1550 1550 1549 1548 1548 1547 1547 1546 1546 1545 1544 1543 1542 1542 1541 1540 1540 1540 1540 1539 1538 1538 1537 1537 1536 1535 1534 1534 1533 1533 1532 1531 1531 1530 1529 1529 1529
1548 1549 1550 1550 1549 1549 1549 1549 1548 1548 1547 1547 1546 1545 1545 1544 1543 1542 1541 1541 1540 1540 1540 1540 1539 1539 1538 1538 1537 1536 1536 1535 1534 1534 1533 1532 1531 1530 1530 1529 1529 1529
1548 1549 1549 1549 1549 1548 1548 1548 1548 1547 1547 1546 1546 1545 1544 1544 1543 1542 1542 1541 1541 1541 1541 1541 1540 1539 1538 1538 1537 1537 1536 1536 1535 1534 1533 1532 1531 1530 1530 1530 1529 1529
1548 1548 1548 1548 1548 1548 1548 1548 1547 1547 1546 1546 1545 1545 1544 1543 1543 1542 1542 1542 1541 1541 1541 1540 1540 1539 1539 1538 1538 1537 1537 1536 1535 1534 1533 1532 1531 1531 1530 1530 1530 1529
1547 1547 1547 1547 1547 1547 1547 1547 1547 1547 1546 1545 1545 1544 1544 1543 1543 1542 1542 1542 1541 1540 1540 1540 1540 1540 1539 1539 1538 1537 1537 1536 1535 1534 1533 1532 1532 1531 1531 1530 1530 1529
1546 1547 1547 1546 1546 1547 1547 1547 1547 1546 1545 1545 1544 1544 1543 1543 1542 1542 1542 1542 1541 1540 1540 1540 1540 1540 1539 1539 1538 1538 1537 1536 1535 1534 1534 1533 1532 1532 1531 1530 1530 1530
1546 1546 1546 1546 1546 1546 1546 1546 1546 1546 1545 1544 1544 1543 1543 1543 1542 1542 1542 1541 1541 1540 1540 1541 1541 1540 1540 1539 1538 1537 1537 1536 1535 1535 1534 1533 1533 1532 1532 1531 1531 1530
1545 1546 1545 1545 1545 1545 1545 1545 1545 1545 1545 1544 1543 1543 1543 1542 1542 1543 1542 1541 1541 1541 1541 1541 1541 1540 1539 1539 1538 1537 1537 1536 1536 1535 1535 1534 1533 1533 1532 1532 1531 1531
1544 1545 1545 1545 1545 1545 1545 1545 1545 1545 1544 1543 1543 1543 1542 1542 1542 1542 1542 1542 1542 1542 1542 1541 1540 1540 1539 1539 1538 1537 1537 1536 1536 1536 1535 1534 1534 1534 1533 1533 1532 1531
1543 1544 1545 1544 1545 1544 1544 1544 1544 1544 1544 1543 1542 1542 1542 1542 1542 1542 1542 1542 1542 1542 1541 1541 1540 1540 1539 1539 1538 1538 1537 1537 1537 1536 1536 1535 1535 1535 1534 1534 1533 1532
1543 1544 1544 1544 1544 1544 1544 1544 1544 1544 1543 1542 1542 1542 1542 1542 1542 1542 1542 1542 1542 1542 1541 1541 1540 1540 1540 1539 1539 1538 1538 1538 1537 1537 1537 1536 1536 1536 1535 1535 1534 1534
1542 1543 1544 1543 1544 1543 1543 1544 1543 1543 1542 1542 1542 1542 1542 1542 1542 1542 1542 1542 1542 1542 1541 1541 1541 1541 1540 1540 1540 1539 1539 1539 1538 1538 1538 1538 1537 1537 1537 1536 1536 1535
1541 1542 1543 1543 1543 1543 1543 1543 1543 1542 1542 1542 1542 1542 1542 1542 1542 1542 1542 1542 1542 1542 1542 1541 1541 1541 1541 1540 1540 1540 1540 1540 1539 1539 1539 1539 1539 1538 1538 1538 1537 1536
1540 1541 1542 1542 1542 1543 1543 1542 1542 1542 1542 1542 1542 1542 1542 1542 1542 1542 1542 1543 1543 1542 1542 1542 1542 1542 1541 1541 1541 1540 1541 1541 1540 1540 1540 1540 1540 1539 1539 1539 1538 1538
1538 1539 1541 1541 1542 1542 1542 1542 1542 1542 1541 1541 1541 1542 1542 1542 1542 1542 1542 1543 1543 1542 1542 1542 1542 1542 1542 1541 1541 1541 1541 1541 1541 1541 1541 1541 1541 1540 1540 1540 1539 1539
1537 1538 1539 1540 1541 1541 1541 1541 1541 1541 1541 1541 1541 1541 1542 1542 1542 1542 1542 1543 1543 1543 1542 1542 1543 1542 1542 1542 1542 1542 1541 1542 1542 1542 1542 1541 1541 1541 1541 1540 1540 1540
1535 1536 1538 1539 1540 1540 1540 1540 1540 1541 1541 1541 1541 1541 1541 1541 1542 1542 1542 1543 1543 1543 1543 1543 1543 1542 1542 1542 1542 1542 1542 1542 1542 1542 1542 1542 1542 1541 1541 1541 1541 1541
1533 1534 1536 1538 1538 1538 1538 1539 1539 1540 1540 1540 1540 1541 1541 1541 1541 1542 1542 1542 1543 1543 1543 1543 1543 1542 1542 1542 1542 1542 1542 1542 1543 1543 1542 1542 1542 1542 1542 1542 1542 1542
1531 1532 1534 1536 1536 1537 1537 1538 1538 1538 1539 1539 1540 1540 1541 1541 1541 1542 1542 1542 1542 1542 1542 1542 1542 1542 1542 1542 1542 1542 1542 1542 1543 1543 1543 1543 1543 1543 1543 1543 1543 1543
1529 1530 1532 1533 1534 1535 1536 1536 1537 1537 1538 1538 1539 1540 1540 1540 1541 1541 1541 1542 1542 1542 1542 1542 1542 1542 1542 1542 1542 1542 1542 1543 1543 1543 1543 1543 1543 1543 1543 1543 1543 1543
1527 1528 1529 1531 1532 1533 1534 1535 1535 1536 1537 1537 1538 1539 1539 1540 1540 1541 1541 1541 1541 1542 1542 1542 1542 1542 1542 1542 1542 1542 1542 1543 1544 1544 1544 1544 1544 1544 1544 1544 1543 1543
1524 1526 1527 1529 1530 1531 1532 1533 1533 1534 1535 1536 1537 1537 1538 1539 1540 1540 1540 1541 1541 1541 1541 1541 1541 1542 1542 1542 1542 1542 1542 1543 1544 1545 1544 1544 1544 1544 1544 1544 1544 1544
1522 1524 1525 1526 1528 1529 1531 1531 1532 1533 1534 1534 1535 1536 1537 1538 1539 1539 1540 1540 1540 1540 1541 1541 1541 1541 1542 1542 1542 1542 1542 1543 1545 1545 1544 1544 1544 1544 1544 1544 1544 1545
1520 1521 1522 1524 1526 1528 1529 1530 1530 1531 1532 1533 1534 1535 1536 1537 1538 1538 1539 1539 1539 1540 1540 1540 1541 1541 1541 1541 1541 1542 1542 1542 1544 1545 1544 1544 1545 1545 1544 1544 1545 1545
Wind_Speed
3 2 2 2 2 2 3 3 3 4 4 5 6 7 8 8 8 8 8 8 7 6 6 6 6 7 7 6 6 6 6 5 5 6 7 6 4 3 2 1 1 3
4 3 2 2 1 2 2 2 2 3 4 6 7 8 8 8 8 8 8 8 7 6 5 5 5 6 6 5 6 6 5 4 3 4 4 3 2 2 2 2 2 4
4 3 2 2 1 1 2 2 4 5 5 6 7 8 8 8 8 8 7 7 6 6 6 5 4 6 6 5 6 6 5 4 2 3 4 2 2 2 3 3 3 4
4 3 2 2 0 0 1 3 5 5 5 6 7 8 8 7 7 7 6 6 6 7 6 4 4 5 4 4 5 5 6 6 5 5 5 5 5 4 5 5 5 5
4 3 2 1 1 1 2 4 4 4 5 6 7 8 7 6 6 6 5 5 5 6 5 4 3 3 4 4 4 4 6 8 6 5 6 7 7 6 6 6 5 5
4 3 2 1 2 1 1 3 4 5 6 6 7 7 7 6 5 4 4 4 4 4 4 2 2 3 4 4 3 5 7 8 7 6 7 7 7 6 6 6 6 6
3 2 2 1 1 1 1 3 4 6 7 7 8 7 6 5 4 3 3 4 3 3 4 3 3 4 4 3 4 5 6 6 6 8 8 8 8 8 7 7 7 6
2 2 1 2 2 0 3 5 6 7 7 8 9 7 5 4 3 3 4 4 4 4 5 4 4 2 3 4 4 4 5 6 7 8 8 8 8 8 8 8 7 7
2 3 2 2 2 0 4 5 6 7 7 9 9 6 4 4 3 3 4 4 4 5 5 4 2 1 2 3 4 5 6 7 7 8 7 8 8 8 8 8 8 7
2 4 2 2 2 1 3 5 6 6 8 9 8 5 4 4 3 4 4 4 4 4 4 4 3 3 4 4 4 6 6 7 7 7 7 8 8 8 9 8 8 9
2 4 3 3 3 2 3 4 5 6 8 8 5 3 4 4 4 5 4 4 5 5 4 4 4 4 4 4 5 6 6 7 7 8 8 9 9 9 10 10 10 11
3 5 4 4 4 3 4 3 4 6 8 6 3 3 4 4 5 6 6 6 6 6 5 4 4 4 4 4 5 6 8 8 9 9 9 10 11 10 11 11 12 12
3 6 5 4 4 4 4 2 3 6 6 3 2 3 4 5 5 6 7 6 6 5 4 4 4 4 4 5 7 9 10 10 10 10 10 11 12 12 12 12 13 14
4 6 5 5 5 3 2 1 3 5 3 2 3 4 5 5 5 6 7 6 6 5 5 5 5 4 6 8 10 11 11 11 11 11 11 12 12 12 13 13 14 15
5 7 6 6 5 4 2 2 2 3 2 3 4 4 5 5 6 7 7 6 6 5 5 5 5 5 7 10 12 13 12 12 12 12 13 13 13 13 14 14 14 15
6 7 8 7 6 5 4 2 2 2 2 3 4 5 5 6 6 7 7 6 6 5 5 5 5 6 9 10 12 13 13 12 12 12 13 13 13 14 14 14 14 14
7 8 8 8 7 6 5 3 1 1 2 3 3 4 5 6 7 7 7 7 6 5 5 5 5 7 9 10 11 12 13 13 12 12 12 12 13 13 13 13 14 14
8 9 10 10 9 8 6 4 2 1 2 3 3 4 5 6 7 7 7 7 7 6 5 5 4 6 9 10 10 11 12 13 12 11 11 11 11 12 12 13 13 13
9 10 11 11 10 10 8 5 3 2 2 3 4 4 5 6 6 6 6 7 7 6 5 5 4 6 8 9 9 9 11 12 11 10 10 10 10 11 11 12 12 12
10 11 13 12 12 11 9 6 5 3 3 4 5 5 6 6 5 5 6 7 7 6 6 5 4 6 7 8 9 9 9 11 10 9 9 9 9 9 10 11 12 12
12 12 14 14 14 13 10 9 7 5 4 6 6 6 6 6 6 5 5 6 7 7 6 5 5 5 6 7 8 8 9 10 9 8 8 8 8 9 10 11 12 12
13 13 15 15 15 14 12 11 9 6 5 6 7 7 7 7 6 5 5 6 6 7 6 5 5 5 6 7 7 8 9 9 9 8 8 8 8 8 9 11 12 12
15 14 16 17 17 16 14 13 10 7 7 7 8 8 7 7 6 5 5 5 6 7 6 5 5 5 5 6 7 7 9 9 8 7 7 8 8 9 9 10 11 11
17 16 17 18 18 17 16 14 11 9 9 8 8 8 8 7 6 5 5 5 6 6 6 6 6 5 5 6 6 7 9 9 6 5 7 8 8 9 9 9 9 10
18 17 18 19 19 18 17 15 12 11 10 10 10 9 8 8 7 6 6 5 5 6 6 6 6 6 6 6 6 6 8 9 6 4 7 8 7 8 9 8 8 8
19 19 19 20 19 19 18 15 13 13 12 12 11 11 10 9 8 8 7 6 6 6 6 6 6 6 6 5 6 5 6 9 8 5 6 8 8 8 8 8 7 7
Wind_Direction
25 43 34 22 17 354 335 327 324 328 342 355 359 2 8 12 12 12 9 6 7 1 1 24 43 38 30 29 16 1 6 36 66 69 59 58 64 70 71 62 46 35
35 57 65 61 40 353 318 309 340 2 5 5 3 3 5 5 6 7 8 9 9 8 14 36 46 24 11 5 356 349 350 8 54 59 46 49 41 33 33 6 13 34
50 76 81 85 71 316 295 346 25 20 8 2 357 356 358 0 3 10 17 18 16 21 29 43 42 16 3 351 345 345 343 344 15 32 14 20 29 6 11 24 34 49
62 93 93 89 118 275 44 32 23 13 2 356 349 349 354 359 7 19 25 23 27 36 41 44 29 8 360 352 347 347 350 355 9 25 26 36 48 48 49 55 55 58
70 106 112 130 226 240 49 29 10 2 356 347 345 350 355 2 16 30 30 25 35 48 52 45 20 10 18 19 10 357 352 357 10 28 34 37 46 57 65 67 60 52
77 125 141 167 232 235 28 10 350 342 343 342 347 355 2 13 31 42 34 29 40 62 72 62 30 37 45 35 4 347 349 0 18 34 40 42 49 61 67 68 64 54
84 148 169 204 212 200 274 311 319 326 336 346 352 359 11 28 41 45 38 39 49 73 84 79 70 57 42 20 355 349 357 15 39 48 51 55 58 65 69 68 67 60
105 164 200 214 184 141 311 308 319 333 345 354 356 4 25 43 53 49 48 59 66 82 92 91 90 69 23 22 21 18 33 52 61 59 57 60 61 62 64 62 61 59
125 184 227 180 162 345 331 324 331 345 350 352 355 7 35 51 67 64 62 75 77 79 88 87 83 60 38 48 53 55 63 64 65 63 62 64 64 63 63 61 61 63
143 190 216 162 166 268 320 330 338 344 340 341 351 13 42 52 75 83 76 82 82 76 76 75 74 69 61 66 71 73 71 66 65 68 69 71 69 68 70 70 72 74
161 189 211 179 176 245 295 318 331 336 331 336 355 26 51 59 76 90 84 80 88 90 82 75 70 61 51 56 67 74 76 76 76 75 74 77 76 76 80 82 84 84
180 185 206 192 189 244 278 302 323 331 333 341 17 53 65 72 77 89 92 88 93 96 87 73 58 47 49 61 74 81 83 84 83 80 81 84 84 86 89 90 90 89
192 184 205 203 204 252 268 281 326 336 342 357 66 86 85 87 87 95 101 100 98 93 84 75 62 57 70 81 88 92 91 89 86 84 87 89 90 93 94 94 95 93
202 185 201 208 203 235 251 253 329 349 8 58 106 109 107 106 104 104 104 102 97 91 85 80 75 79 94 99 99 97 94 93 91 91 93 93 95 96 97 97 97 95
212 187 196 208 200 202 222 248 332 7 55 109 119 121 121 118 115 109 104 101 97 93 88 81 82 95 103 106 105 101 98 96 96 97 98 99 99 99 98 98 95 93
216 192 192 201 195 190 206 242 329 24 91 122 126 132 131 123 119 114 111 110 105 99 91 84 90 100 102 105 108 106 103 99 97 99 101 102 101 99 98 97 95 92
215 194 189 194 194 192 202 222 286 54 119 132 136 141 136 128 123 119 119 120 114 103 95 91 98 103 102 103 106 107 106 102 100 101 102 103 102 98 96 94 94 94
215 194 186 192 195 192 197 208 212 153 144 150 152 148 140 131 125 123 125 122 116 110 103 103 106 104 103 104 105 108 108 104 102 102 102 104 103 100 97 94 93 95
222 198 187 192 196 192 196 207 211 187 166 164 164 157 145 136 130 129 127 123 121 119 114 114 114 107 106 107 107 109 108 105 104 105 106 106 105 104 103 101 100 100
225 202 189 190 195 195 196 204 212 204 180 170 168 163 151 141 138 137 135 133 131 129 125 124 120 113 111 111 111 112 110 107 107 106 107 108 108 109 110 110 110 109
223 204 193 190 194 197 197 201 212 211 188 175 171 166 156 148 149 149 148 144 139 136 133 128 121 117 117 115 115 115 112 109 109 109 110 111 113 115 117 116 114 111
223 208 198 192 194 197 195 201 214 213 192 179 172 169 162 155 156 158 156 153 147 142 138 132 127 125 124 120 119 121 117 110 109 112 115 117 120 123 126 126 122 118
224 212 204 197 195 196 195 202 214 210 195 185 175 172 169 162 160 161 160 159 157 149 143 140 137 134 132 127 125 128 122 113 111 116 120 126 130 130 131 131 127 124
225 215 209 202 197 195 196 204 212 206 196 188 179 175 175 172 172 174 170 169 168 161 156 155 150 145 143 134 131 134 126 117 117 124 125 130 135 134 134 133 129 127
226 217 212 205 198 195 196 202 209 207 198 192 185 180 181 184 185 187 187 183 180 174 168 166 162 155 150 141 136 139 131 125 131 144 136 135 138 139 139 136 133 132
227 220 214 206 197 195 194 195 203 208 203 195 189 184 185 190 191 193 197 195 191 188 179 176 174 165 159 151 144 144 139 135 143 159 152 143 144 146 146 143 143 143